Regional Weather Roundup
Issued by NWS

Home | Current Version | Previous Version | Text Only | Print | Product List | Glossary Off
Versions: 1 2 3 4 5 6 7 8 9 10 11 12 13 14 15 16 17 18 19 20 21 22 23 24 25 26 27 28 29 30 31 32 33 34 35 36 37 38 39 40 41 42 43 44 45 46 47 48 49 50

000
ASUS43 KDTX 240710
RWRMI
MICHIGAN HOURLY REGIONAL WEATHER ROUNDUP
NATIONAL WEATHER SERVICE DETROIT/PONTIAC MI
ISSUED BY NATIONAL WEATHER SERVICE GRAND RAPIDS MI
300 AM EDT MON JUL 24 2017

NOTE: "FAIR" INDICATES FEW OR NO CLOUDS BELOW 12,000 FEET WITH NO
SIGNIFICANT WEATHER AND/OR OBSTRUCTION TO VISIBILITY.

MIZ047>049-052>055-059>063-066>070-074>076-081>083-240800-
SOUTHEAST LOWER MICHIGAN

CITY           SKY/WX    TMP DP  RH WIND       PRES   REMARKS
ADRIAN         CLOUDY    68  64  87 N8        29.83R
ALMA           CLEAR     63  58  86 NW7       29.87R
ANN ARBOR      CLEAR     61  61 100 CALM      29.81S
BAD AXE        CLOUDY    63  60  92 NW9       29.82S
DETROIT CITY   CLEAR     70  61  73 CALM      29.80S
DETROIT        CLOUDY    67  65  93 NW5       29.81F
FLINT          MOCLDY    65  62  90 NW5       29.83S
GROSSE ILE     CLEAR     69  65  86 N7        29.78F
HILLSDALE      CLOUDY    66  63  88 NW6       29.84S
HOWELL         CLEAR     65  62  90 N3        29.83S

CITY           SKY/WX    TMP DP  RH WIND       PRES   REMARKS
JACKSON        CLEAR     65  62  90 NW5       29.84S
LANSING        MOCLDY    66  61  84 N8        29.85S
MASON          CLOUDY    66  64  91 NW5       29.85R
MONROE         CLEAR     67  65  94 NW3       29.79F
MT. CLEMENS    PTCLDY    66  64  93 NW3       29.78F
PONTIAC        PTCLDY    67  64  90 N8        29.81S
PORT HOPE        N/A     65  61  87 MISG      29.78F
PORT HURON     CLEAR     64  63  94 NW3       29.79F
TRI CITIES     MOCLDY    64  61  90 N12       29.85R
YPSILANTI      CLEAR     67  65  93 W6        29.81F
$$
MIZ043>046-050>051-056>058-064>065-071>073-077>080-240800-
SOUTHWEST LOWER MICHIGAN

CITY           SKY/WX    TMP DP  RH WIND       PRES   REMARKS
BATTLE CREEK   CLEAR     66  63  90 NW6       29.86S
BENTON HARBOR  MOCLDY    68  62  81 VRB5      29.88R
BIG RAPIDS     CLOUDY    63  57  81 NE6       29.89R
COLDWATER      CLEAR     67  67  99 N3        29.85S
HOLLAND        CLEAR     65  61  87 VRB5      29.88S
KALAMAZOO      CLEAR     66  60  81 N8        29.87R
MARSHALL       CLEAR     65  64  98 NW3       29.85S
MOUNT PLEASANT MOCLDY    64  57  77 CALM      29.86S
MUSKEGON       PTCLDY    65  62  90 N7        29.89R
STURGIS        CLEAR     66  64  94 CALM      29.85S
$$
MIZ016>042-240800-
NORTHERN LOWER MICHIGAN

CITY           SKY/WX    TMP DP  RH WIND       PRES   REMARKS
ALPENA         LGT RAIN  59  59 100 N12       29.88S FOG
BEAVER ISLAND  CLEAR     60  54  79 NE7G16    29.97R
BELLAIRE       CLOUDY    60  54  78 N3        29.92S
CADILLAC       CLOUDY    61  56  82 N8        29.91R
CHARLEVOIX     CLOUDY    60  55  83 NE10      29.97S
GAYLORD        CLOUDY    57  54  89 NE10G18   29.92S
HOUGHTON LAKE  CLOUDY    58  55  90 N7        29.90S
MANISTEE       CLOUDY    63  58  83 N6        29.91R
OSCODA         DRIZZLE   60  59  96 NW12G18   29.83S
PELLSTON       CLOUDY    59  55  87 N9        29.95R
TRAVERSE CITY  CLOUDY    62  55  77 NE9       29.91R
LUDINGTON      CLOUDY    61  59  96 CALM      29.90R
$$
MIZ007>008-015-240800-
EASTERN UPPER MICHIGAN

CITY           SKY/WX    TMP DP  RH WIND       PRES   REMARKS
KINROSS        CLEAR     53  51  93 N6        29.97R
MACKINAC ISLAN CLEAR     58  55  89 NE16      29.94S
NEWBERRY       CLEAR     51  50  97 NW6       29.98S
S. S. MARIE    CLEAR     56  50  80 N5        29.96S
$$
MIZ004>006-011>014-085-240800-
CENTRAL UPPER MICHIGAN

CITY           SKY/WX    TMP DP  RH WIND       PRES   REMARKS
MANISTIQUE     CLEAR     51  48  90 N6        29.99R
ESCANABA       CLEAR     54  53  97 NW5       29.99S
MENOMINEE      CLOUDY    60  55  83 N8        30.00R
SAWYER-GWINN   CLEAR     49  48  98 N3        30.02F
$$
MIZ001>003-009>011-084-240800-
WESTERN UPPER MICHIGAN

CITY           SKY/WX    TMP DP  RH WIND       PRES   REMARKS
IRON MOUNTAIN  MOCLDY    55  50  83 N7        30.02R
HOUGHTON       CLEAR     46  43  89 NW5       30.04R
COPPER HARBOR    N/A     51  48  89 W6        30.03S
IRONWOOD       CLOUDY    55  55 100 CALM      30.06F
$$

ABBREVIATIONS USED IN REMARKS
   TC - TEMPERATURE IN CELSIUS
  WCI - WIND CHILL INDEX
   HX - HEAT INDEX
  VSB - VISIBILITY





USA.gov is the U.S. government's official web portal to all federal, state and local government web resources and services.